This demonstration page uses our WeatherBlox Daily Observations layout. Learn more.

Left ArrowRight Arrow

34.16533, -84.80231

Hourly Observations for March 10, 2021

Temp ( °F °C ) Dew Point ( °F °C ) Humidity (%) Winds ( mph kmh ) Pressure ( in mb ) Visibility ( mi km ) Precip ( " mm )
12:53 am 00:53 Clear 40 4.4 31 -0.6 70 70 Calm 30.41 1030 8 13 0.00 0.00
1:53 am 01:53 Clear 38 3.3 32 0 79 79 Calm 30.41 1030 8 13 0.00 0.00
2:53 am 02:53 Clear 38 3.3 32 0 79 79 Calm 30.40 1030 8 13 0.00 0.00
3:53 am 03:53 Clear 37 2.8 32 0 82 82 Calm 30.39 1029 9 14 0.00 0.00
4:53 am 04:53 Clear 37 2.8 31 -0.6 79 79 N 3 6 30.40 1029 9 14 0.00 0.00
5:53 am 05:53 Clear 36 2.2 31 -0.6 82 82 Calm 30.41 1030 9 14 0.00 0.00
6:53 am 06:53 Clear 37 2.8 32 0 82 82 Calm 30.43 1030 8 13 0.00 0.00
7:53 am 07:53 Sunny 39 3.9 34 1.1 82 82 Calm 30.45 1031 8 13 0.00 0.00
8:53 am 08:53 Sunny 50 10 39 3.9 66 66 NNE 3 6 30.46 1032 10 16 0.00 0.00
9:53 am 09:53 Sunny 59 15 40 4.4 49 49 NE 3 6 30.46 1032 10 16 0.00 0.00
10:53 am 10:53 Sunny 65 18.3 41 5 42 42 Calm 30.45 1031 10 16 0.00 0.00
11:53 am 11:53 Sunny 69 20.6 42 5.6 38 38 Calm 30.44 1031 10 16 0.00 0.00
12:53 pm 12:53 Sunny 71 21.7 40 4.4 32 32 undefined N/A 30.41 1030 10 16 0.00 0.00
1:53 pm 13:53 Sunny 73 22.8 40 4.4 30 30 S 9 15 30.38 1029 10 16 0.00 0.00
2:53 pm 14:53 Sunny 75 23.9 36 2.2 24 24 SSE 10 17 30.36 1028 10 16 0.00 0.00
3:53 pm 15:53 Sunny 74 23.3 38 3.3 27 27 S 9 15 30.34 1027 10 16 0.00 0.00
4:53 pm 16:53 Sunny 73 22.8 38 3.3 28 28 VRB 7 11 30.32 1027 10 16 0.00 0.00
5:53 pm 17:53 Sunny 72 22.2 37 2.8 28 28 SSE 8 13 30.31 1027 10 16 0.00 0.00
6:53 pm 18:53 Clear 68 20 38 3.3 33 33 Calm 30.32 1027 10 16 0.00 0.00
7:53 pm 19:53 Clear 58 14.4 41 5 53 53 Calm 30.33 1027 10 16 0.00 0.00
8:53 pm 20:53 Clear 55 12.8 40 4.4 57 57 SE 5 7 30.33 1027 10 16 0.00 0.00
9:53 pm 21:53 Clear 60 15.6 38 3.3 44 44 SSE 7 11 30.34 1028 10 16 0.00 0.00
10:53 pm 22:53 Clear 57 13.9 38 3.3 49 49 SSE 3 6 30.35 1028 10 16 0.00 0.00
11:53 pm 23:53 Clear 50 10 39 3.9 66 66 Calm 30.35 1028 10 16 0.00 0.00

Powered by AerisWeather